When you browse on this site, cookies collect data to enhance your experience and personalize the content and advertising you see.
Visit our Privacy Policy to learn more. By continuing to use the site, you agree to this use of cookies and data.
  • In Lithuania
  • List of Countries
  • For 7 days
  • Water Temperature
  • Weather Map
  • Weather Widgets
  • user-avatar
    Login

    Hourly Weather Koper

    Today, 9 April, Thursday

    Time Temperature Precipitation Wind Pressure Humidity
    00:00 +9°C° 0 mm 2 mps 757 mmHg 52%
    01:00 +9°C° 0 mm 2 mps 757 mmHg 55%
    02:00 +9°C° 0 mm 2 mps 757 mmHg 56%
    03:00 +9°C° 0 mm 2 mps 756 mmHg 56%
    04:00 +8°C° 0 mm 2 mps 756 mmHg 56%
    05:00 +9°C° 0 mm 2 mps 756 mmHg 55%
    06:00 +10°C° 0 mm 2 mps 756 mmHg 53%
    07:00 +12°C° 0 mm 2 mps 756 mmHg 51%
    08:00 +15°C° 0 mm 2 mps 756 mmHg 43%
    09:00 +19°C° 0 mm 1 mps 756 mmHg 35%
    10:00 +23°C° 0 mm 1 mps 756 mmHg 27%
    11:00 +23°C° 0 mm 1 mps 755 mmHg 26%
    12:00 +24°C° 0 mm 2 mps 755 mmHg 24%
    13:00 +24°C° 0 mm 2 mps 755 mmHg 23%
    14:00 +24°C° 0 mm 2 mps 755 mmHg 25%
    15:00 +23°C° 0 mm 2 mps 754 mmHg 26%
    16:00 +23°C° 0 mm 2 mps 754 mmHg 27%
    17:00 +19°C° 0 mm 2 mps 754 mmHg 35%
    18:00 +16°C° 0 mm 1 mps 754 mmHg 43%
    19:00 +13°C° 0 mm 0 mps 754 mmHg 50%
    20:00 +13°C° 0 mm 1 mps 755 mmHg 51%
    21:00 +13°C° 0 mm 1 mps 755 mmHg 51%
    22:00 +13°C° 0 mm 1 mps 755 mmHg 52%
    23:00 +12°C° 0 mm 1 mps 756 mmHg 52%

    Tomorrow, 10 April, Friday

    Time Temperature Precipitation Wind Pressure Humidity
    00:00 +12°C° 0 mm 1 mps 756 mmHg 52%
    01:00 +12°C° 0 mm 1 mps 756 mmHg 52%
    02:00 +12°C° 0 mm 1 mps 756 mmHg 51%
    03:00 +12°C° 0 mm 1 mps 755 mmHg 51%
    04:00 +12°C° 0 mm 1 mps 755 mmHg 50%
    05:00 +13°C° 0 mm 1 mps 755 mmHg 48%
    06:00 +14°C° 0 mm 1 mps 756 mmHg 46%
    07:00 +15°C° 0 mm 1 mps 756 mmHg 44%
    08:00 +19°C° 0 mm 1 mps 756 mmHg 39%
    09:00 +22°C° 0 mm 1 mps 756 mmHg 34%
    10:00 +25°C° 0 mm 1 mps 756 mmHg 29%
    11:00 +25°C° 0 mm 1 mps 756 mmHg 29%
    12:00 +25°C° 0 mm 2 mps 756 mmHg 28%
    13:00 +26°C° 0 mm 2 mps 755 mmHg 28%
    14:00 +25°C° 0 mm 2 mps 755 mmHg 30%
    15:00 +24°C° 0 mm 2 mps 755 mmHg 31%
    16:00 +24°C° 0 mm 2 mps 754 mmHg 33%
    17:00 +20°C° 0 mm 2 mps 754 mmHg 38%
    18:00 +19°C° 0 mm 1 mps 754 mmHg 42%
    19:00 +16°C° 0 mm 1 mps 754 mmHg 47%
    20:00 +16°C° 0 mm 1 mps 754 mmHg 48%
    21:00 +15°C° 0 mm 1 mps 755 mmHg 48%
    22:00 +15°C° 0 mm 1 mps 755 mmHg 49%
    23:00 +14°C° 0 mm 1 mps 755 mmHg 50%

    Day after tomorrow, 11 April, Saturday

    Time Temperature Precipitation Wind Pressure Humidity
    00:00 +14°C° 0 mm 1 mps 755 mmHg 50%
    01:00 +14°C° 0 mm 1 mps 755 mmHg 51%
    02:00 +14°C° 0 mm 1 mps 755 mmHg 51%
    03:00 +13°C° 0 mm 1 mps 755 mmHg 52%
    04:00 +13°C° 0 mm 1 mps 755 mmHg 52%
    05:00 +14°C° 0 mm 1 mps 755 mmHg 52%
    06:00 +15°C° 0 mm 1 mps 755 mmHg 51%
    07:00 +16°C° 0 mm 1 mps 755 mmHg 51%
    08:00 +19°C° 0 mm 1 mps 755 mmHg 44%
    09:00 +22°C° 0 mm 1 mps 755 mmHg 38%
    10:00 +25°C° 0 mm 1 mps 755 mmHg 31%
    11:00 +25°C° 0 mm 1 mps 755 mmHg 31%
    12:00 +25°C° 0 mm 2 mps 755 mmHg 30%
    13:00 +25°C° 0 mm 2 mps 755 mmHg 29%
    14:00 +25°C° 0 mm 2 mps 755 mmHg 30%
    15:00 +24°C° 0 mm 2 mps 754 mmHg 31%
    16:00 +23°C° 0 mm 2 mps 754 mmHg 32%
    17:00 +20°C° 0 mm 2 mps 754 mmHg 38%
    18:00 +19°C° 0 mm 1 mps 754 mmHg 45%
    19:00 +16°C° 0 mm 1 mps 754 mmHg 51%
    20:00 +15°C° 0 mm 1 mps 754 mmHg 52%
    21:00 +15°C° 0 mm 1 mps 755 mmHg 53%
    22:00 +15°C° 0 mm 1 mps 755 mmHg 55%
    23:00 +14°C° 0 mm 1 mps 755 mmHg 57%

    12 April, Sunday

    Time Temperature Precipitation Wind Pressure Humidity
    00:00 +14°C° 0 mm 1 mps 755 mmHg 59%
    01:00 +13°C° 0 mm 1 mps 755 mmHg 61%
    02:00 +13°C° 0 mm 1 mps 755 mmHg 63%
    03:00 +13°C° 0 mm 1 mps 754 mmHg 64%
    04:00 +13°C° 0 mm 1 mps 754 mmHg 65%
    05:00 +14°C° 0 mm 1 mps 754 mmHg 63%
    06:00 +15°C° 0 mm 1 mps 754 mmHg 60%
    07:00 +16°C° 0 mm 1 mps 754 mmHg 57%
    08:00 +19°C° 0 mm 1 mps 754 mmHg 50%
    09:00 +21°C° 0 mm 1 mps 754 mmHg 42%
    10:00 +24°C° 0 mm 1 mps 753 mmHg 35%
    11:00 +24°C° 0 mm 2 mps 753 mmHg 35%
    12:00 +24°C° 0 mm 2 mps 753 mmHg 34%
    13:00 +24°C° 0 mm 3 mps 752 mmHg 33%
    14:00 +24°C° 0 mm 3 mps 752 mmHg 34%
    15:00 +22°C° 0 mm 3 mps 752 mmHg 35%
    16:00 +22°C° 0 mm 3 mps 751 mmHg 35%
    17:00 +20°C° 0 mm 3 mps 751 mmHg 44%
    18:00 +17°C° 0 mm 2 mps 751 mmHg 53%
    19:00 +15°C° 0 mm 2 mps 750 mmHg 62%
    20:00 +15°C° 0 mm 2 mps 750 mmHg 64%
    21:00 +14°C° 0 mm 2 mps 751 mmHg 66%
    22:00 +13°C° 0 mm 2 mps 751 mmHg 69%
    23:00 +13°C° 0 mm 2 mps 751 mmHg 71%

    13 April, Monday

    Time Temperature Precipitation Wind Pressure Humidity
    00:00 +13°C° 0 mm 2 mps 751 mmHg 73%
    01:00 +13°C° 0 mm 2 mps 750 mmHg 75%
    02:00 +12°C° 0 mm 2 mps 750 mmHg 79%
    03:00 +11°C° 0 mm 3 mps 750 mmHg 83%
    04:00 +11°C° 0 mm 3 mps 750 mmHg 87%
    05:00 +12°C° 0 mm 3 mps 750 mmHg 81%
    06:00 +12°C° 0 mm 3 mps 750 mmHg 76%
    07:00 +13°C° 0 mm 3 mps 750 mmHg 70%
    08:00 +14°C° 0 mm 3 mps 750 mmHg 61%
    09:00 +17°C° 0 mm 4 mps 750 mmHg 52%
    10:00 +18°C° 0 mm 4 mps 750 mmHg 43%
    11:00 +19°C° 0 mm 4 mps 750 mmHg 40%
    12:00 +19°C° 0 mm 5 mps 750 mmHg 38%
    13:00 +20°C° 0 mm 5 mps 750 mmHg 35%
    14:00 +19°C° 0 mm 4 mps 750 mmHg 35%
    15:00 +19°C° 0 mm 4 mps 750 mmHg 35%
    16:00 +19°C° 0 mm 4 mps 749 mmHg 34%
    17:00 +17°C° 0 mm 3 mps 749 mmHg 42%
    18:00 +14°C° 0 mm 3 mps 749 mmHg 50%
    19:00 +13°C° 0 mm 2 mps 749 mmHg 57%
    20:00 +13°C° 0 mm 2 mps 750 mmHg 61%
    21:00 +12°C° 0 mm 2 mps 750 mmHg 66%
    22:00 +10°C° 0 mm 2 mps 751 mmHg 70%
    23:00 +10°C° 0 mm 2 mps 751 mmHg 74%

    14 April, Tuesday

    Time Temperature Precipitation Wind Pressure Humidity
    00:00 +10°C° 0 mm 2 mps 751 mmHg 78%
    01:00 +10°C° 0 mm 2 mps 751 mmHg 82%
    02:00 +10°C° 0 mm 2 mps 751 mmHg 85%
    03:00 +10°C° 0 mm 2 mps 751 mmHg 88%
    04:00 +10°C° 0 mm 2 mps 751 mmHg 91%
    05:00 +12°C° 0 mm 2 mps 751 mmHg 87%
    06:00 +13°C° 0 mm 2 mps 751 mmHg 83%
    07:00 +14°C° 0 mm 2 mps 752 mmHg 80%
    08:00 +16°C° 0 mm 1 mps 752 mmHg 68%
    09:00 +20°C° 0 mm 1 mps 752 mmHg 57%
    10:00 +22°C° 0 mm 1 mps 752 mmHg 46%
    11:00 +21°C° 0 mm 2 mps 753 mmHg 47%
    12:00 +21°C° 0 mm 3 mps 753 mmHg 48%
    13:00 +20°C° 0 mm 3 mps 753 mmHg 50%
    14:00 +19°C° 0.1 mm 3 mps 753 mmHg 54%
    15:00 +18°C° 0.1 mm 2 mps 753 mmHg 59%
    16:00 +17°C° 0.1 mm 2 mps 753 mmHg 64%
    17:00 +14°C° 0 mm 3 mps 753 mmHg 66%
    18:00 +13°C° 0 mm 3 mps 753 mmHg 69%
    19:00 +11°C° 0 mm 3 mps 754 mmHg 71%
    20:00 +10°C° 0 mm 4 mps 754 mmHg 72%
    21:00 +8°C° 0 mm 4 mps 754 mmHg 72%
    22:00 +7°C° 0 mm 4 mps 755 mmHg 73%
    23:00 +7°C° 0 mm 4 mps 755 mmHg 72%
    Show more